Погода в Сомборе

Сербия     45°46′25″N   19°06′46″E
темп.,
°C
ветер,
м/с
пор.,
м/с
влажн.,
%
обл.,
%
осадки,
мм/ч
давл.,
гПа
погр.,
м
30 ноября, вт
вт3001:00+2ссз81572100 0.0 1008769
04:00+2сз6127297 0.0 1011629
07:00+1сз714725 0.0 1012840
10:00+3зсз610655 0.0 1015992
13:00+5з57524 0.0 1014936
16:00+4юз5959100 0.0 1012271
19:00+4юз71655100 0.0 1010637
22:00+5зюз61457100 0.1 1011876
1 декабря, ср
ср101:00+6з91851100 0.1 1011787
04:00+6з71657100 0.0 1012650
07:00+5ююз3670100 0.0 1013189
10:00+7юз5861100 0.0 1014332
13:00+9юз710525 0.0 1011651
16:00+7ююз510655 0.0 1009243
19:00+6ю5117325 0.0 1009241
22:00+6ю6157299 0.0 1007331
2 декабря, чт
чт201:00+7ююз61671100 0.0 1006392
04:00+8ююз61671100 0.0 1004378
07:00+6ююз41281100 0.0 1004218
10:00+8ююз1186100 0.8 100435
13:00+11ююв2669100 0.8 1001373
16:00+11ю51174100 0.0 999277
19:00+10юв1283100 3.4 99836
22:00+10зюз268099 0.2 997335
3 декабря, пт
пт301:00+5с91389100 0.7 999601
04:00+4ссз71495100 4.9 1003824
07:00+4ссз81568100 5.1 1006811
10:00+4ссз81564100 0.0 1010843
13:00+5ссз61160100 0.0 1012975
16:00+3ссз4865100 0.0 1014335
19:00+2сз3871100 0.0 1015350
22:00+1сз37750 0.0 1015167
4 декабря, сб
сб401:000сз23795 0.0 101446
04:000зсз22825 0.0 101414
07:00−1з11835 0.0 101310
10:00+2ю226878 0.0 1012350
13:00+4ю23597 0.0 1009635
16:00+2юв2266100 0.0 100813
19:00+1ююв2271100 0.0 100911
22:000ю3377100 0.0 100860